Stündliche Wetter A dos Cunhados

Heute, 22 Juni, Dienstag

Zeit Temperatur Niederschläge Wind Luftdruck Luftfeuchtigkeit
00:00 +14°C° 0 mm 4 m/S 754 mmHg 96%
01:00 +14°C° 0 mm 5 m/S 754 mmHg 95%
02:00 +14°C° 0 mm 5 m/S 754 mmHg 94%
03:00 +15°C° 0 mm 6 m/S 754 mmHg 93%
04:00 +15°C° 0 mm 6 m/S 754 mmHg 91%
05:00 +15°C° 0 mm 7 m/S 754 mmHg 90%
06:00 +16°C° 0 mm 7 m/S 755 mmHg 82%
07:00 +17°C° 0 mm 7 m/S 755 mmHg 74%
08:00 +20°C° 0 mm 8 m/S 755 mmHg 66%
09:00 +20°C° 0 mm 8 m/S 755 mmHg 63%
10:00 +21°C° 0 mm 8 m/S 756 mmHg 60%
11:00 +22°C° 0 mm 8 m/S 756 mmHg 57%
12:00 +22°C° 0 mm 9 m/S 756 mmHg 57%
13:00 +22°C° 0 mm 9 m/S 756 mmHg 57%
14:00 +22°C° 0 mm 9 m/S 756 mmHg 56%
15:00 +21°C° 0 mm 9 m/S 756 mmHg 61%
16:00 +19°C° 0 mm 9 m/S 756 mmHg 65%
17:00 +18°C° 0 mm 9 m/S 756 mmHg 69%
18:00 +17°C° 0 mm 8 m/S 756 mmHg 75%
19:00 +16°C° 0 mm 8 m/S 756 mmHg 82%
20:00 +15°C° 0 mm 8 m/S 756 mmHg 88%
21:00 +15°C° 0 mm 8 m/S 756 mmHg 88%
22:00 +15°C° 0 mm 8 m/S 756 mmHg 88%
23:00 +15°C° 0 mm 8 m/S 756 mmHg 88%

Morgen, 23 Juni, Mittwoch

Zeit Temperatur Niederschläge Wind Luftdruck Luftfeuchtigkeit
00:00 +15°C° 0 mm 8 m/S 755 mmHg 89%
01:00 +15°C° 0 mm 7 m/S 755 mmHg 89%
02:00 +15°C° 0 mm 7 m/S 755 mmHg 90%
03:00 +14°C° 0 mm 7 m/S 755 mmHg 89%
04:00 +14°C° 0 mm 7 m/S 755 mmHg 88%
05:00 +13°C° 0 mm 8 m/S 755 mmHg 87%
06:00 +16°C° 0 mm 8 m/S 755 mmHg 77%
07:00 +18°C° 0 mm 7 m/S 755 mmHg 67%
08:00 +21°C° 0 mm 7 m/S 755 mmHg 57%
09:00 +22°C° 0 mm 8 m/S 755 mmHg 52%
10:00 +23°C° 0 mm 8 m/S 755 mmHg 47%
11:00 +24°C° 0 mm 8 m/S 755 mmHg 42%
12:00 +24°C° 0 mm 8 m/S 755 mmHg 43%
13:00 +24°C° 0 mm 8 m/S 755 mmHg 43%
14:00 +24°C° 0 mm 8 m/S 755 mmHg 43%
15:00 +23°C° 0 mm 8 m/S 755 mmHg 49%
16:00 +21°C° 0 mm 8 m/S 755 mmHg 54%
17:00 +20°C° 0 mm 8 m/S 755 mmHg 60%
18:00 +18°C° 0 mm 8 m/S 755 mmHg 68%
19:00 +17°C° 0 mm 7 m/S 755 mmHg 77%
20:00 +15°C° 0 mm 6 m/S 755 mmHg 86%
21:00 +15°C° 0 mm 6 m/S 755 mmHg 88%
22:00 +15°C° 0 mm 5 m/S 755 mmHg 90%
23:00 +14°C° 0 mm 5 m/S 755 mmHg 91%

übermorgen, 24 Juni, Donnerstag

Zeit Temperatur Niederschläge Wind Luftdruck Luftfeuchtigkeit
00:00 +14°C° 0 mm 5 m/S 755 mmHg 92%
01:00 +14°C° 0 mm 5 m/S 754 mmHg 92%
02:00 +14°C° 0 mm 4 m/S 754 mmHg 93%
03:00 +14°C° 0 mm 4 m/S 754 mmHg 91%
04:00 +14°C° 0 mm 4 m/S 754 mmHg 90%
05:00 +14°C° 0 mm 4 m/S 754 mmHg 88%
06:00 +19°C° 0 mm 4 m/S 754 mmHg 71%
07:00 +22°C° 0 mm 4 m/S 754 mmHg 55%
08:00 +26°C° 0 mm 4 m/S 754 mmHg 38%
09:00 +28°C° 0 mm 4 m/S 754 mmHg 34%
10:00 +30°C° 0 mm 4 m/S 754 mmHg 30%
11:00 +32°C° 0 mm 4 m/S 754 mmHg 26%
12:00 +32°C° 0 mm 4 m/S 754 mmHg 27%
13:00 +32°C° 0 mm 5 m/S 754 mmHg 29%
14:00 +32°C° 0 mm 5 m/S 753 mmHg 30%
15:00 +29°C° 0 mm 6 m/S 753 mmHg 34%
16:00 +28°C° 0 mm 6 m/S 753 mmHg 37%
17:00 +27°C° 0 mm 6 m/S 753 mmHg 41%
18:00 +23°C° 0 mm 6 m/S 753 mmHg 48%
19:00 +21°C° 0 mm 5 m/S 753 mmHg 56%
20:00 +19°C° 0 mm 5 m/S 754 mmHg 63%
21:00 +19°C° 0 mm 4 m/S 754 mmHg 65%
22:00 +18°C° 0 mm 4 m/S 753 mmHg 66%
23:00 +18°C° 0 mm 4 m/S 753 mmHg 68%

25 Juni, Freitag

Zeit Temperatur Niederschläge Wind Luftdruck Luftfeuchtigkeit
00:00 +18°C° 0 mm 3 m/S 753 mmHg 69%
01:00 +18°C° 0 mm 3 m/S 753 mmHg 70%
02:00 +17°C° 0 mm 3 m/S 753 mmHg 72%
03:00 +17°C° 0 mm 3 m/S 753 mmHg 71%
04:00 +18°C° 0 mm 3 m/S 753 mmHg 71%
05:00 +18°C° 0 mm 3 m/S 753 mmHg 71%
06:00 +21°C° 0 mm 2 m/S 753 mmHg 59%
07:00 +26°C° 0 mm 2 m/S 753 mmHg 47%
08:00 +29°C° 0 mm 2 m/S 753 mmHg 35%
09:00 +30°C° 0 mm 3 m/S 753 mmHg 33%
10:00 +33°C° 0 mm 3 m/S 753 mmHg 31%
11:00 +34°C° 0 mm 3 m/S 753 mmHg 29%
12:00 +33°C° 0 mm 4 m/S 753 mmHg 32%
13:00 +32°C° 0 mm 4 m/S 753 mmHg 35%
14:00 +30°C° 0 mm 4 m/S 753 mmHg 38%
15:00 +29°C° 0 mm 4 m/S 753 mmHg 42%
16:00 +28°C° 0 mm 4 m/S 753 mmHg 46%
17:00 +26°C° 0 mm 4 m/S 753 mmHg 50%
18:00 +24°C° 0 mm 3 m/S 753 mmHg 62%
19:00 +21°C° 0 mm 3 m/S 753 mmHg 73%
20:00 +18°C° 0 mm 2 m/S 753 mmHg 84%
21:00 +18°C° 0 mm 2 m/S 753 mmHg 85%
22:00 +18°C° 0 mm 2 m/S 753 mmHg 85%
23:00 +17°C° 0 mm 2 m/S 754 mmHg 86%

26 Juni, Samstag

Zeit Temperatur Niederschläge Wind Luftdruck Luftfeuchtigkeit
00:00 +17°C° 0 mm 2 m/S 753 mmHg 86%
01:00 +17°C° 0 mm 2 m/S 753 mmHg 86%
02:00 +18°C° 0 mm 1 m/S 753 mmHg 86%
03:00 +18°C° 0 mm 1 m/S 753 mmHg 84%
04:00 +18°C° 0 mm 1 m/S 753 mmHg 82%
05:00 +18°C° 0 mm 1 m/S 754 mmHg 81%
06:00 +21°C° 0 mm 1 m/S 754 mmHg 67%
07:00 +24°C° 0 mm 1 m/S 754 mmHg 54%
08:00 +27°C° 0 mm 1 m/S 754 mmHg 40%
09:00 +28°C° 0 mm 2 m/S 754 mmHg 37%
10:00 +29°C° 0 mm 3 m/S 754 mmHg 34%
11:00 +30°C° 0 mm 4 m/S 755 mmHg 32%
12:00 +30°C° 0 mm 4 m/S 755 mmHg 32%
13:00 +30°C° 0 mm 4 m/S 755 mmHg 33%
14:00 +29°C° 0 mm 4 m/S 754 mmHg 33%
15:00 +28°C° 0 mm 4 m/S 754 mmHg 36%
16:00 +27°C° 0 mm 4 m/S 754 mmHg 39%
17:00 +26°C° 0 mm 4 m/S 754 mmHg 42%
18:00 +23°C° 0 mm 4 m/S 754 mmHg 55%
19:00 +20°C° 0 mm 4 m/S 754 mmHg 68%
20:00 +18°C° 0 mm 3 m/S 755 mmHg 81%
21:00 +17°C° 0 mm 3 m/S 755 mmHg 83%
22:00 +17°C° 0 mm 3 m/S 755 mmHg 85%
23:00 +17°C° 0 mm 3 m/S 755 mmHg 88%

27 Juni, Sonntag

Zeit Temperatur Niederschläge Wind Luftdruck Luftfeuchtigkeit
00:00 +16°C° 0 mm 2 m/S 754 mmHg 88%
01:00 +16°C° 0 mm 2 m/S 754 mmHg 88%
02:00 +16°C° 0 mm 2 m/S 754 mmHg 88%
03:00 +16°C° 0 mm 2 m/S 754 mmHg 87%
04:00 +16°C° 0 mm 2 m/S 754 mmHg 86%
05:00 +16°C° 0 mm 2 m/S 754 mmHg 86%
06:00 +19°C° 0 mm 2 m/S 754 mmHg 71%
07:00 +23°C° 0 mm 2 m/S 754 mmHg 57%
08:00 +26°C° 0 mm 2 m/S 754 mmHg 42%
09:00 +27°C° 0 mm 3 m/S 755 mmHg 41%
10:00 +28°C° 0 mm 3 m/S 755 mmHg 39%
11:00 +29°C° 0 mm 4 m/S 755 mmHg 38%
12:00 +29°C° 0 mm 4 m/S 755 mmHg 36%
13:00 +30°C° 0 mm 4 m/S 754 mmHg 34%
14:00 +30°C° 0 mm 4 m/S 754 mmHg 32%
15:00 +28°C° 0 mm 4 m/S 754 mmHg 38%
16:00 +27°C° 0 mm 4 m/S 754 mmHg 44%
17:00 +25°C° 0 mm 4 m/S 754 mmHg 50%
18:00 +21°C° 0 mm 3 m/S 754 mmHg 62%
19:00 +19°C° 0 mm 3 m/S 754 mmHg 74%
20:00 +17°C° 0 mm 3 m/S 754 mmHg 87%
21:00 +16°C° 0 mm 3 m/S 754 mmHg 87%
22:00 +16°C° 0 mm 3 m/S 754 mmHg 87%
23:00 +16°C° 0 mm 2 m/S 754 mmHg 87%
Mehr zeigen

Wir brauchen deine Erlaubnis

Meteoprog und unser Service Anbieter werden persönliche Daten aufbewahren, so wie Cookies, Geräte Bezeichnung oder ähnliche Technologien von deinem Gerät und Prozess, so wie Persönliche Daten Inhalte und Werbungen, genauso wie social Media und den Verkehr zu analysieren.

  • Aufbewahrung und/oder Zugang zu deiner Geräte Informationen.

    Cookies, Geräte Bezeichnung oder andere Informationen, können aufbewahrt oder Zugang zu deinem Gerät erhalten, für den Grund, der oben angegeben wird.

  • Personalisierte Werbung und Inhalte, Messungen, Einblick in das Publikum und Produkt Entwicklung.

    Werbungen und Inhalte können personalisiert werden, basierend auf ein Profil. Mehr Daten können besser personalisierte Werbungen und Inhalte hinzufügen. Werbung und Inhalte können gezeigt und gemessen werden. Einblicke über das Publikum, welche die Werbung gesehen haben und den Inhalt, können abgeleitet werden. So wie Daten können genutzt werden, um es zu verbessern oder die Benutzer Erfahrung zu verbessern das System und die Software.

Wenn du “Ich stimme zu” klickst, erlaubst du uns, die Cookies zu benutzen die Geräte Bezeichnung, den Web oder ähnliche Technologien zu benutzen. Deine Settings, können in deinem Gerät bei deinem Browser geändert werden.

Für den bestimmten Zweck, berechtigten Interessen beruhen darauf, mehr als auf den Inhalt. Du kannst mehr darüber in unseren Privaten und Cookie Politik lesen.